Location: Northcutt
(34.7304°N, 84.4305°W)
Time: 10:30:26
(UTC+00:00)

A-11 Canister half - Pass Details

Date: 04 October 2022
Orbit: 1524 x 1685 km, 47.3° (Epoch: 30 November)

Event Time Altitude Azimuth Distance (km) Brightness Sun altitude
Rises 22:52:41 0° 282° (WNW) 4,671 13.1 4.2°
Reaches altitude 10° 22:56:02 10° 290° (WNW) 3,695 12.3 3.6°
Maximum altitude 23:04:34 38° 357° (N) 2,195 9.9 1.8°
Drops below altitude 10° 23:13:17 10° 63° (ENE) 3,776 10.5 0.0°
Sets 23:16:46 0° 71° (ENE) 4,784 10.9 -0.7°
